This is the latest recevied weather packets stored in our database for station/object EA3ANS-1. If no packets are shown the sender has not sent any weather packets the latest 10 day(s).
| Time | Temp. | Humidity | Pressure | Rain* | Wind** | Luminosity | Snow |
|---|---|---|---|---|---|---|---|
| 1787927320 | 30° C | - | 1014.4 hPa | 0 mm | 0 m/s | - | - |
| 1787926722 | 30° C | - | 1014.6 hPa | 0 mm | 1.79 m/s, 281° | - | - |
| 1787926125 | 30° C | - | 1014.8 hPa | 0 mm | 2.24 m/s, 278° | - | - |
| 1787925525 | 29.44° C | - | 1014.9 hPa | 0 mm | 2.24 m/s, 250° | - | - |
| 1787924921 | 30° C | - | 1015 hPa | 0 mm | 2.24 m/s, 305° | - | - |
| 1787924321 | 30° C | - | 1015.1 hPa | 0 mm | 2.68 m/s, 314° | - | - |
| 1787923720 | 29.44° C | - | 1015.2 hPa | 0 mm | 3.58 m/s, 256° | - | - |
| 1787923119 | 29.44° C | - | 1015.3 hPa | 0 mm | 2.24 m/s, 285° | - | - |
| 1787922521 | 29.44° C | - | 1015.6 hPa | 0 mm | 1.79 m/s, 328° | - | - |
| 1787921924 | 29.44° C | - | 1015.7 hPa | 0 mm | 0.89 m/s, 276° | - | - |
| 1787921326 | 28.89° C | - | 1015.7 hPa | 0 mm | 2.68 m/s, 281° | - | - |
| 1787920722 | 28.33° C | - | 1015.7 hPa | 0 mm | 3.58 m/s, 305° | - | - |
| 1787920125 | 28.33° C | - | 1015.7 hPa | 0 mm | 3.58 m/s, 322° | - | - |
| 1787919527 | 27.78° C | - | 1015.6 hPa | 0 mm | 4.47 m/s, 274° | - | - |
| 1787918930 | 28.33° C | - | 1015.5 hPa | 0 mm | 2.24 m/s, 340° | - | - |
| 1787918332 | 27.78° C | - | 1015.6 hPa | 0 mm | 4.02 m/s, 353° | - | - |
| 1787917770 | 27.78° C | - | 1015.6 hPa | 0 mm | 4.47 m/s, 300° | - | - |
| 1787917735 | 27.78° C | - | 1015.6 hPa | 0 mm | 4.47 m/s, 300° | - | - |
| 1787917137 | 27.78° C | - | 1015.6 hPa | 0 mm | 3.13 m/s, 271° | - | - |
| 1787916531 | 27.78° C | - | 1015.8 hPa | 0 mm | 5.36 m/s, 325° | - | - |
| 1787915926 | 27.78° C | - | 1015.7 hPa | 0 mm | 4.02 m/s, 200° | - | - |
| 1787915316 | 27.22° C | - | 1015.8 hPa | 0 mm | 2.24 m/s, 252° | - | - |
| 1787914716 | 27.78° C | - | 1016.1 hPa | 0 mm | 4.02 m/s, 294° | - | - |
| 1787914113 | 26.67° C | - | 1015.8 hPa | 0 mm | 4.02 m/s, 248° | - | - |
| 1787913511 | 26.67° C | - | 1015.6 hPa | 0 mm | 2.68 m/s, 287° | - | - |
* Rain latest hour (hover to see other rain measurements)
** Current wind speed in m/s (hover to see current wind gust speed)